Newport News, VA

8:31 PM EDT on September 26, 2016 (GMT -0400)
Newport News-Williamsburg International

Weather History for KPHF - November, 2013

Change the Weather History Date:

Thursday, November 21, 2013

  Actual Average Record
Temperature  
Mean Temperature 52 °F -  
Max Temperature 61 °F 60 °F 79 °F (1953)
Min Temperature 42 °F 39 °F 26 °F (2000)
Degree Days  
Heating Degree Days 14    
Growing Degree Days 2 (Base 50)    
Moisture  
Dew Point 44 °F    
Average Humidity 81    
Maximum Humidity 93    
Minimum Humidity 64    
Precipitation  
Precipitation 0.00 in - - ()
Sea Level Pressure  
Sea Level Pressure 30.44 in    
Wind  
Wind Speed 4 mph (NE)    
Max Wind Speed 10 mph    
Max Gust Speed -    
Visibility 6 miles    
Events Fog    
Averages and records for this station are not official NWS values.
T = Trace of Precipitation, MM = Missing Value Source: NWS Daily Summary

Daily Weather History Graph

Daily Weather History Graph

Search for Another Location

Airport or City:

Trip Planner

Search our weather history database for the weather conditions in past years. The results will help you decide how hot, cold, wet, or windy it might be!

Date:

Astronomy

Nov. 21, 2013 Rise Set
Actual Time 6:51 AM EST 4:52 PM EST
Civil Twilight 6:23 AM EST 5:20 PM EST
Nautical Twilight 5:51 AM EST 5:52 PM EST
Astronomical Twilight 5:20 AM EST 6:23 PM EST
Moon 8:26 PM EST (11/21) 9:56 AM EST (11/21)
Length of Visible Light 10h 57m
Length of Day
10h 01m
Waning Gibbous, 85% of the Moon is Illuminated
Nov 21
Waning Gibbous
Nov 25
Last Quarter
Dec 2
New
Dec 9
First Quarter
Dec 17
Full

Hourly Weather History & Observations

Time (EST) Temp. Windchill Dew Point Humidity Pressure Visibility Wind Dir Wind Speed Gust Speed Precip Events Conditions
12:54 AM 48.9 °F - 41.0 °F 74% 30.48 in 10.0 mi NNE 5.8 mph - N/A   Overcast
1:54 AM 50.0 °F - 41.0 °F 71% 30.49 in 10.0 mi NNE 6.9 mph - N/A   Overcast
2:54 AM 50.0 °F - 41.0 °F 71% 30.48 in 10.0 mi NNE 5.8 mph - N/A   Overcast
3:54 AM 50.0 °F - 42.1 °F 74% 30.47 in 10.0 mi NE 4.6 mph - N/A   Overcast
4:54 AM 50.0 °F - 42.1 °F 74% 30.47 in 10.0 mi North - - N/A   Mostly Cloudy
5:54 AM 48.9 °F - 42.1 °F 77% 30.48 in 10.0 mi Calm Calm - N/A   Overcast
6:54 AM 48.0 °F - 42.1 °F 80% 30.49 in 10.0 mi North 4.6 mph - N/A   Overcast
7:54 AM 50.0 °F - 43.0 °F 77% 30.49 in 10.0 mi NE 5.8 mph - N/A   Overcast
8:54 AM 54.0 °F - 44.1 °F 69% 30.50 in 10.0 mi NE 4.6 mph - N/A   Clear
9:54 AM 57.0 °F - 46.0 °F 67% 30.50 in 10.0 mi Variable 5.8 mph - N/A   Overcast
10:54 AM 57.0 °F - 46.9 °F 69% 30.50 in 10.0 mi ENE 5.8 mph - N/A   Overcast
11:54 AM 59.0 °F - 48.0 °F 67% 30.48 in 10.0 mi NE 4.6 mph - N/A   Overcast
12:54 PM 61.0 °F - 48.9 °F 64% 30.45 in 10.0 mi East 10.4 mph - N/A   Mostly Cloudy
1:54 PM 61.0 °F - 48.9 °F 64% 30.43 in 10.0 mi East 9.2 mph - N/A   Clear
2:54 PM 59.0 °F - 48.9 °F 69% 30.43 in 10.0 mi ENE 6.9 mph - N/A   Clear
3:54 PM 59.0 °F - 48.9 °F 69% 30.43 in 10.0 mi ENE 3.5 mph - N/A   Clear
4:54 PM 54.0 °F - 46.9 °F 77% 30.43 in 10.0 mi ENE 4.6 mph - N/A   Clear
5:11 PM 53.6 °F - 48.2 °F 82% 30.43 in 10.0 mi East 4.6 mph - N/A   Mostly Cloudy
5:54 PM 52.0 °F - 46.9 °F 83% 30.43 in 10.0 mi Calm Calm - N/A   Mostly Cloudy
6:06 PM 53.6 °F - 46.4 °F 77% 30.44 in 10.0 mi NE 3.5 mph - N/A   Scattered Clouds
6:54 PM 51.1 °F - 46.9 °F 86% 30.43 in 10.0 mi NNE 3.5 mph - N/A   Clear
7:54 PM 50.0 °F - 46.0 °F 86% 30.44 in 9.0 mi Calm Calm - 0.00 in   Clear
8:37 PM 46.4 °F 45.2 °F 44.6 °F 93% 30.43 in 1.5 mi East 3.5 mph - N/A   Partly Cloudy
8:41 PM 48.2 °F - 44.6 °F 87% 30.44 in 0.8 mi Calm Calm - N/A   Mist
8:46 PM 48.2 °F - 44.6 °F 87% 30.43 in 1.2 mi Calm Calm - N/A   Partly Cloudy
8:49 PM 48.2 °F - 44.6 °F 87% 30.43 in 4.0 mi Calm Calm - N/A   Partly Cloudy
8:54 PM 48.0 °F - 43.0 °F 83% 30.43 in 5.0 mi Calm Calm - N/A   Haze
9:11 PM 46.4 °F - 44.6 °F 93% 30.43 in 1.8 mi Calm Calm - N/A   Clear
9:14 PM 44.6 °F - 42.8 °F 93% 30.43 in 1.0 mi Calm Calm - N/A   Mist
9:21 PM 46.4 °F - 42.8 °F 87% 30.42 in 0.8 mi Calm Calm - N/A   Mist
9:25 PM 46.4 °F - 42.8 °F 87% 30.42 in 1.2 mi Calm Calm - N/A   Partly Cloudy
9:30 PM 46.4 °F - 42.8 °F 87% 30.42 in 0.8 mi Calm Calm - N/A   Mist
9:54 PM 45.0 °F - 41.0 °F 86% 30.42 in 0.5 mi Calm Calm - N/A Fog Fog
10:00 PM 46.4 °F - 42.8 °F 87% 30.42 in 2.0 mi Calm Calm - N/A   Scattered Clouds
10:06 PM 44.6 °F - 42.8 °F 93% 30.42 in 0.8 mi Calm Calm - N/A   Mostly Cloudy
10:12 PM 44.6 °F - 42.8 °F 93% 30.41 in 0.2 mi Calm Calm - N/A Fog Fog
10:54 PM 45.0 °F - 42.1 °F 90% 30.40 in 0.5 mi Calm Calm - N/A Fog Fog
11:06 PM 44.6 °F - 41.0 °F 87% 30.40 in 0.2 mi Calm Calm - N/A Fog Fog
11:27 PM 42.8 °F 40.1 °F 39.2 °F 87% 30.40 in 0.5 mi East 4.6 mph - N/A Fog Fog
11:35 PM 44.6 °F 42.2 °F 39.2 °F 81% 30.39 in 2.5 mi ENE 4.6 mph - N/A   Haze
11:47 PM 46.4 °F - 42.8 °F 87% 30.40 in 1.0 mi Calm Calm - N/A   Mist
11:52 PM 48.2 °F - 44.6 °F 87% 30.40 in 2.0 mi Calm Calm - N/A   Scattered Clouds
11:54 PM 48.0 °F - 45.0 °F 89% 30.40 in 2.5 mi Calm Calm - N/A   Scattered Clouds